Milwaukee Timmerman, WI

4:09 PM CST on December 15, 2017 (GMT -0600)
Timmerman

Weather History for KMWC - July, 2013

Change the Weather History Date:

Tuesday, July 9, 2013

  Actual Average Record
Temperature  
Mean Temperature 74 °F -  
Max Temperature 82 °F 85 °F 99 °F (1988)
Min Temperature 66 °F 64 °F 46 °F (1963)
Cooling Degree Days 9    
Growing Degree Days 24 (Base 50)    
Moisture  
Dew Point 66 °F    
Average Humidity 82    
Maximum Humidity 94    
Minimum Humidity 66    
Precipitation  
Precipitation 0.00 in - - ()
Sea Level Pressure  
Sea Level Pressure 29.95 in    
Wind  
Wind Speed 3 mph (South)    
Max Wind Speed 12 mph    
Max Gust Speed 22 mph    
Visibility 7 miles    
Events Rain , Thunderstorm    
Averages and records for this station are not official NWS values.
T = Trace of Precipitation, MM = Missing Value Source: NWS Daily Summary

Daily Weather History Graph

Daily Weather History Graph

Search for Another Location

Airport or City:

Trip Planner

Search our weather history database for the weather conditions in past years. The results will help you decide how hot, cold, wet, or windy it might be!

Date:

Astronomy

Jul. 09, 2013 Rise Set
Actual Time 5:21 AM CDT 8:32 PM CDT
Civil Twilight 4:46 AM CDT 9:07 PM CDT
Nautical Twilight 4:02 AM CDT 9:52 PM CDT
Astronomical Twilight 3:08 AM CDT 10:45 PM CDT
Moon 6:49 AM CDT (7/9) 9:05 PM CDT (7/9)
Length of Visible Light 16h 20m
Length of Day
15h 11m
New Moon, 2% of the Moon is Illuminated
Jul 9
New Moon
Jul 15
First Quarter
Jul 22
Full
Jul 29
Last Quarter
Aug 6
New

Hourly Weather History & Observations

Time (CDT) Temp. Heat Index Dew Point Humidity Pressure Visibility Wind Dir Wind Speed Gust Speed Precip Events Conditions
12:15 AM 68.0 °F - 64.4 °F 88% 30.02 in 7.0 mi Calm Calm - N/A   Mostly Cloudy
12:35 AM 68.0 °F - 64.4 °F 88% 30.02 in 7.0 mi Calm Calm - N/A   Overcast
12:55 AM 68.0 °F - 64.4 °F 88% 30.02 in 7.0 mi Calm Calm - N/A   Mostly Cloudy
1:15 AM 68.0 °F - 64.4 °F 88% 30.01 in 7.0 mi Calm Calm - N/A   Clear
1:35 AM 68.0 °F - 64.4 °F 88% 30.01 in 7.0 mi Calm Calm - N/A   Clear
1:55 AM 68.0 °F - 64.4 °F 88% 30.01 in 7.0 mi Calm Calm - N/A   Clear
2:15 AM 66.2 °F - 62.6 °F 88% 30.01 in 5.0 mi Calm Calm - N/A   Clear
2:35 AM 68.0 °F - 62.6 °F 83% 30.01 in 5.0 mi Calm Calm - N/A   Clear
2:55 AM 66.2 °F - 62.6 °F 88% 30.00 in 5.0 mi Calm Calm - N/A   Clear
3:15 AM 68.0 °F - 64.4 °F 88% 30.00 in 5.0 mi Calm Calm - N/A   Clear
3:35 AM 68.0 °F - 62.6 °F 83% 30.01 in 5.0 mi Calm Calm - N/A   Clear
3:55 AM 66.2 °F - 62.6 °F 88% 30.00 in 5.0 mi Calm Calm - N/A   Clear
4:15 AM 68.0 °F - 62.6 °F 83% 30.00 in 5.0 mi Calm Calm - N/A   Clear
4:35 AM 66.2 °F - 62.6 °F 88% 30.01 in 5.0 mi Calm Calm - N/A   Clear
4:55 AM 68.0 °F - 62.6 °F 83% 30.00 in 5.0 mi Calm Calm - N/A   Scattered Clouds
5:15 AM 68.0 °F - 64.4 °F 88% 30.00 in 5.0 mi Calm Calm - N/A   Overcast
5:35 AM 68.0 °F - 62.6 °F 83% 30.00 in 5.0 mi East 3.5 mph - N/A   Overcast
5:55 AM 66.2 °F - 62.6 °F 88% 30.00 in 4.0 mi East 3.5 mph - N/A   Scattered Clouds
6:15 AM 66.2 °F - 62.6 °F 88% 30.00 in 4.0 mi Calm Calm - N/A   Mostly Cloudy
6:35 AM 66.2 °F - 62.6 °F 88% 30.00 in 5.0 mi East 3.5 mph - N/A   Overcast
6:45 AM 68.0 °F - 64.4 °F 88% 30.00 in 5.0 mi Calm Calm - N/A   Overcast
6:55 AM 68.0 °F - 62.6 °F 83% 30.01 in 7.0 mi Calm Calm - N/A   Overcast
7:45 AM 69.8 °F - 64.4 °F 83% 30.00 in 7.0 mi ENE 6.9 mph - N/A   Overcast
8:45 AM 71.6 °F - 64.4 °F 78% 30.00 in 10.0 mi ESE 5.8 mph - N/A   Overcast
9:45 AM 71.6 °F - 64.4 °F 78% 29.99 in 10.0 mi ESE 6.9 mph - N/A   Overcast
10:45 AM 73.4 °F - 64.4 °F 73% 29.98 in 10.0 mi ESE 6.9 mph - N/A   Overcast
11:45 AM 73.4 °F - 64.4 °F 73% 29.97 in 10.0 mi East 6.9 mph - N/A   Overcast
12:45 PM 73.4 °F - 64.4 °F 73% 29.96 in 2.0 mi East 4.6 mph - N/A Rain , Thunderstorm Thunderstorms and Rain
1:45 PM 69.8 °F - 66.2 °F 88% 29.94 in 4.0 mi SE 8.1 mph - N/A Rain Light Rain
2:45 PM 71.6 °F - 68.0 °F 88% 29.92 in 3.0 mi SSE 8.1 mph - N/A   Overcast
3:45 PM 71.6 °F - 69.8 °F 94% 29.90 in 7.0 mi South 6.9 mph - N/A   Mostly Cloudy
4:45 PM 77.0 °F - 69.8 °F 78% 29.86 in 10.0 mi South 5.8 mph - N/A   Scattered Clouds
5:45 PM 80.6 °F 84.6 °F 71.6 °F 74% 29.86 in 10.0 mi SW 9.2 mph - N/A   Scattered Clouds
6:45 PM 82.4 °F 86.3 °F 69.8 °F 66% 29.85 in 10.0 mi SW 6.9 mph 21.9 mph N/A   Clear
7:45 PM 80.6 °F 83.9 °F 69.8 °F 70% 29.84 in 10.0 mi SW 9.2 mph 17.3 mph N/A   Clear
8:45 PM 80.6 °F 83.9 °F 69.8 °F 70% 29.83 in 10.0 mi SW 10.4 mph - N/A   Clear
9:15 PM 77.0 °F - 69.8 °F 78% 29.84 in 10.0 mi SW 9.2 mph - N/A   Clear
9:35 PM 77.0 °F - 69.8 °F 78% 29.85 in 10.0 mi SW 9.2 mph - N/A   Clear
9:55 PM 77.0 °F - 69.8 °F 78% 29.85 in 10.0 mi SW 9.2 mph - N/A   Clear
10:15 PM 77.0 °F - 69.8 °F 78% 29.85 in 10.0 mi SW 8.1 mph - N/A   Clear
10:35 PM 77.0 °F - 69.8 °F 78% 29.85 in 10.0 mi SW 8.1 mph - N/A   Clear
10:55 PM 77.0 °F - 69.8 °F 78% 29.85 in 10.0 mi SW 11.5 mph - N/A   Clear
11:15 PM 77.0 °F - 69.8 °F 78% 29.85 in 10.0 mi WSW 9.2 mph - N/A   Clear
11:35 PM 77.0 °F - 69.8 °F 78% 29.85 in 10.0 mi WSW 10.4 mph - N/A   Clear
11:55 PM 77.0 °F - 71.6 °F 83% 29.86 in 10.0 mi WSW 9.2 mph - N/A   Clear